Regional Weather Roundup
Issued by NWS

Home | Current Version | Previous Version | Graphics & Text | Print | Product List | Glossary On
Versions: 1 2 3 4 5 6 7 8 9 10 11 12 13 14 15 16 17 18 19 20 21 22 23 24 25 26 27 28 29 30 31 32 33 34 35 36 37 38 39 40 41 42 43 44 45 46 47 48 49 50
000
ASUS43 KMKX 281700
RWRWI

WISCONSIN REGIONAL WEATHER ROUNDUP
NATIONAL WEATHER SERVICE MILWAUKEE/SULLIVAN WI
1200 PM CDT THU JUL 28 2016

NOTE: "FAIR" INDICATES FEW OR NO CLOUDS BELOW 12,000 FEET WITH NO
SIGNIFICANT WEATHER AND/OR OBSTRUCTIONS TO VISIBILITY.

WIZ001-002-006>008-014>016-023>028-281800-
NORTHWEST WISCONSIN

CITY           SKY/WX    TMP DP  RH WIND       PRES   REMARKS
SUPERIOR ARPT  PTSUNNY   67  58  71 E13G20    30.10S
ASHLAND        PTSUNNY   70  57  63 NE14      30.09R
HAYWARD        CLOUDY    70  56  61 NE8       30.07R
SIREN          CLOUDY    72  55  56 NE10      30.07R
CUMBERLAND     CLOUDY    68  54  60 NE8       30.06R
RICE LAKE      CLOUDY    69  56  63 NE6       30.06R
CHETEK         CLOUDY    69  62  76 NE6       30.05R
LADYSMITH      CLOUDY    72  58  62 NE6       30.06R
EAU CLAIRE     CLOUDY    66  64  93 NE8       30.01S FOG
MENOMONIE      CLOUDY    67  67  99 N8        30.03R
NEW RICHMOND   CLOUDY    68  58  69 NE9       30.05R
OSCEOLA        CLOUDY    68  65  93 N8        30.08R
$$

WIZ003>005-009-010-017-018-281800-
NORTH CENTRAL WISCONSIN

CITY           SKY/WX    TMP DP  RH WIND       PRES   REMARKS
MANITOWISH WTR CLOUDY    71  57  60 NE9       30.06S
ARBOR VITAE    CLOUDY    72  56  57 E7        30.06R
WOODRUFF       CLOUDY    72  56  57 E7        30.06R
RHINELANDER    PTSUNNY   73  57  57 E10       30.05F
EAGLE RIVER    MOSUNNY   72  53  51 NE10      30.05S
LAND O LAKES   CLOUDY    71  54  54 E10       30.07S
PHILLIPS       CLOUDY    69  57  66 NE7       30.05R
TOMAHAWK       CLOUDY    67  55  64 E6        30.05R
MEDFORD        CLOUDY    62  62 100 E7        30.03S FOG
MERRILL        DRIZZLE   63  60  90 NE3       30.05R
$$

WIZ029-030-035-036-043>047-281800-
CENTRAL WISCONSIN

CITY           SKY/WX    TMP DP  RH WIND       PRES   REMARKS
WAUSAU         CLOUDY    62  59  90 NE7       30.01S
MOSINEE        CLOUDY    63  63 100 NE10      30.02S
MARSHFIELD     LGT RAIN  63  60  90 E13       30.01R
STEVENS POINT  CLOUDY    62  60  94 NE9       30.01R
WAUPACA        CLOUDY    70  64  82 NE6       29.99S
WAUTOMA        CLOUDY    70  63  78 E9        29.98S
WISC RAPIDS    CLOUDY    65  59  81 E8        30.01R
CAMP DOUGLAS   NOT AVBL
$$

WIZ011>013-019>022-031-037>040-048>050-281800-
NORTHEAST WISCONSIN

CITY           SKY/WX    TMP DP  RH WIND       PRES   REMARKS
ANTIGO         CLOUDY    60  57  91 E5        30.04F
SHAWANO        LGT RAIN  64  62  91 NE10      30.02F
OCONTO         CLOUDY   N/A N/A N/A N5        30.01S
STURGEON BAY   LGT RAIN  67  62  84 NE8       30.01S
GREEN BAY      CLOUDY    68  65  90 NE14      30.00R
MANITOWOC      NOT AVBL
APPLETON       PTSUNNY   70  59  68 E13G21    29.98S
CLINTONVILLE   CLOUDY    63  61  94 NE7       30.01S
OSHKOSH        PTSUNNY   70  61  73 NE13      29.96F
$$

WIZ032>034-041-042-053>061-281800-
SOUTHWEST WISCONSIN

CITY           SKY/WX    TMP DP  RH WIND       PRES   REMARKS
LA CROSSE      LGT RAIN  69  66  90 N8        29.94S
SPARTA         CLOUDY    66  64  96 NE7       29.97R
VIROQUA        CLOUDY    69  69 100 NE3       29.95R
BOSCOBEL       CLOUDY    77  69  76 VRB5      29.91F
PRAIRIE DU CHI DRIZZLE   71  67  88 W10       29.92S
PLATTEVILLE    PTSUNNY   80  72  77 SE5       29.90F HX  83
$$

WIZ056-057-062-063-064-067-068-281800-
SOUTH CENTRAL WISCONSIN

CITY           SKY/WX    TMP DP  RH WIND       PRES   REMARKS
REEDSBURG      CLOUDY    70  67  93 E7        29.94S
BARABOO/DELLS  CLOUDY    70  65  84 E8        29.95S
LONE ROCK      NOT AVBL
MINERAL POINT  PTSUNNY   77  72  83 E5        29.92F
MADISON        CLOUDY    75  68  78 E8        29.92F
MIDDLETON      CLOUDY    75  69  80 E6        29.93F
WATERTOWN      CLOUDY    72  71  96 NE8       29.93F
MONROE         PTSUNNY   77  70  78 NE6       29.91F
JANESVILLE     CLOUDY    82  72  69 NE8       29.89F HX  87
$$

WIZ051-052-058>065-066-070>072-281800-
SOUTHEAST WISCONSIN

CITY           SKY/WX    TMP DP  RH WIND       PRES   REMARKS
MILWAUKEE      PTSUNNY   77  69  76 NE12      29.93S
WAUKESHA       CLOUDY    73  66  78 E8        29.95S
MILWAUKEE/TIMM CLOUDY    73  64  73 NE9       29.95S
RACINE         CLOUDY    77  68  73 NE8       29.94S
BURLINGTON     PTSUNNY   80  69  68 SE7       29.92S HX  83
KENOSHA        PTSUNNY   81  69  67 VRB3      29.92F HX  84
FOND DU LAC    CLOUDY    74  62  66 E9        29.96S
SHEBOYGAN      CLOUDY    70  61  73 NE18      29.97S
WEST BEND      CLOUDY    70  63  78 NE12      29.95S
JUNEAU         CLOUDY    71  65  82 NE10      29.96S
$$

LSZ147-162-281800-
LAKE SUPERIOR

STATION/POSITION TIME  TEMP    WIND        PRES    WAVE
                       AIR SEA DIR/SP/G            HT/PER
                 (UTC) (F)     (DEG/KT/KT) (MB)    (FT/S)
W MID LAKE BUOY  1550   61 60   40/ 14/ 16 1018.5R   2/ 3
DEVILS ISLAND    1600   62      60/ 17/ 18 1019.0R
PORT WING        1540   63      30/ 11/ 12 1019.0R
SAXON HARBOR     1640   66      30/ 11/ 12 1018.3R
$$

LMZ867-665-643>646-281800-
LAKE MICHIGAN

STATION/POSITION TIME  TEMP    WIND        PRES    WAVE
                       AIR SEA DIR/SP/G            HT/PER
                 (UTC) (F)     (DEG/KT/KT) (MB)    (FT/S)
CHAMBERS ISLAND  1600   67      30/  6/ 11 1016.3S
N MID LAKE BUOY  1550   66 69   50/  6/  8 1015.5S   1/ 3
NORTHPORT PIER   1600   69      50/  6/  9 1016.3S
SISTER BAY       1621   71      40/  4/  7   N/A
ALGOMA LAKESHORE 1613           80/  9/ 12   N/A
KEWAUNEE LAKESHO 1600   63      30/  8/ 12 1015.0F
SHEBOYGAN LAKESH 1600   60     350/ 17/ 18 1014.8R
PORT WASHINGTON  1640   71      30/ 10/ 13 1014.9R
ATWATER BUOY     1600   62 61  350/ 10/ 14 1015.2R
MILWAUKEE LAKESH 1610   70      10/ 11/ 13   N/A
S MID LAKE BUOY  1550   75 75  100/  4/  6 1012.1F   1
KENOSHA   LAKESH 1600   66      40/  5/  6 1012.9S
$$

TC  - TEMPERATURE IN CELSIUS
VSB - VISIBILITY IN STATUTE MILES
WCI - WIND CHILL INDEX
HX  - HEAT INDEX




USA.gov is the U.S. government's official web portal to all federal, state and local government web resources and services.